Weather History for Cecil Field, FL

Change the Weather History Date:

Wednesday, April 17, 2013

  Actual Average (KJAX) Record (KJAX)
Temperature  
Mean Temperature 67 °F 67 °F  
Max Temperature 77 °F 79 °F 93 °F (1967)
Min Temperature 57 °F 55 °F 38 °F (1950)
Degree Days  
Heating Degree Days 0 2  
Month to date heating degree days 42  
Since 1 July heating degree days 1331  
Cooling Degree Days 2 4  
Month to date cooling degree days 52  
Year to date cooling degree days 135  
Growing Degree Days 17 (Base 50)    
Moisture  
Dew Point 62 °F    
Average Humidity 93    
Maximum Humidity 100    
Minimum Humidity 65    
Precipitation  
Precipitation 0.00 in 0.09 in 1.00 in (1946)
Month to date precipitation 1.65  
Year to date precipitation 12.09  
Snow  
Snow 0.00 in 0.00 in 0.00 in (2002)
Month to date snowfall 0.0  
Since 1 July snowfall T  
Snow Depth -    
Sea Level Pressure  
Sea Level Pressure 30.16 in    
Wind  
Wind Speed 1 mph (NE)    
Max Wind Speed 12 mph    
Max Gust Speed -    
Visibility 6 miles    
Events      
T = Trace of Precipitation, MM = Missing Value Source: NWS Daily Summary

Daily Weather History Graph

Daily Weather History Graph

Search for Another Location

Airport:

Trip Planner

Search our weather history database for the weather conditions in past years. The results will help you decide how hot, cold, wet, or windy it might be!

Date:

Astronomy

Apr. 17, 2013 Rise Set
Actual Time 6:58 AM EDT 7:56 PM EDT
Civil Twilight 6:33 AM EDT 8:21 PM EDT
Nautical Twilight 6:04 AM EDT 8:50 PM EDT
Astronomical Twilight 5:34 AM EDT 9:20 PM EDT
Moon 12:18 PM EDT (4/17) 1:24 AM EDT (4/17)
Length of Visible Light 13h 47m
Length of Day
12h 58m
Waxing Crescent, 42% of the Moon is Illuminated
Apr 17
Waxing Crescent
Apr 18
First Quarter
Apr 25
Full
May 2
Last Quarter
May 9
New

Hourly Weather History & Observations

Time (EDT) Temp. Dew Point Humidity Pressure Visibility Wind Dir Wind Speed Gust Speed Precip Events Conditions
12:15 AM 62.6 °F 62.6 °F 100% 30.19 in 4.0 mi Calm Calm - N/A   Clear
12:35 AM 60.8 °F 60.8 °F 100% 30.19 in 5.0 mi Calm Calm - N/A   Clear
12:55 AM 59.0 °F 59.0 °F 100% 30.18 in 2.0 mi Calm Calm - N/A   Clear
1:15 AM 59.0 °F 59.0 °F 100% 30.18 in 5.0 mi Calm Calm - N/A   Clear
1:35 AM 59.0 °F 59.0 °F 100% 30.18 in 1.5 mi Calm Calm - N/A   Clear
1:55 AM 59.0 °F 59.0 °F 100% 30.17 in 6.0 mi Calm Calm - N/A   Clear
2:15 AM 59.0 °F 59.0 °F 100% 30.17 in 5.0 mi Calm Calm - N/A   Clear
2:35 AM 57.2 °F 57.2 °F 100% 30.17 in 3.0 mi Calm Calm - N/A   Clear
2:55 AM 59.0 °F 59.0 °F 100% 30.17 in 4.0 mi Calm Calm - N/A   Clear
3:15 AM 57.2 °F 57.2 °F 100% 30.17 in 6.0 mi Calm Calm - N/A   Clear
3:35 AM 57.2 °F 57.2 °F 100% 30.16 in 2.0 mi Calm Calm - N/A   Clear
3:55 AM 57.2 °F 57.2 °F 100% 30.16 in 5.0 mi Calm Calm - N/A   Clear
4:15 AM 57.2 °F 57.2 °F 100% 30.16 in 7.0 mi Calm Calm - N/A   Partly Cloudy
4:35 AM 57.2 °F 57.2 °F 100% 30.16 in 3.0 mi Calm Calm - N/A   Partly Cloudy
4:55 AM 57.2 °F 57.2 °F 100% 30.16 in 5.0 mi Calm Calm - N/A   Clear
5:15 AM 57.2 °F 57.2 °F 100% 30.16 in 0.8 mi Calm Calm - N/A   Mist
5:35 AM 59.0 °F 59.0 °F 100% 30.16 in 4.0 mi Calm Calm - N/A   Clear
5:55 AM 57.2 °F 57.2 °F 100% 30.17 in 1.8 mi Calm Calm - N/A   Clear
6:15 AM 57.2 °F 57.2 °F 100% 30.17 in 3.0 mi Calm Calm - N/A   Clear
6:35 AM 59.0 °F 59.0 °F 100% 30.18 in 7.0 mi Calm Calm - N/A   Partly Cloudy
6:50 AM 59.0 °F 59.0 °F 100% 30.19 in 2.0 mi Calm Calm - N/A   Mostly Cloudy
7:50 AM 62.6 °F 62.6 °F 100% 30.20 in 1.5 mi North 4.6 mph - N/A   Overcast
8:10 AM 62.6 °F 62.6 °F 100% 30.20 in 4.0 mi NNE 5.8 mph - N/A   Mostly Cloudy
8:30 AM 64.4 °F 64.4 °F 100% 30.19 in 7.0 mi NNE 4.6 mph - N/A   Scattered Clouds
8:50 AM 66.2 °F 66.2 °F 100% 30.19 in 7.0 mi NNE 5.8 mph - N/A   Scattered Clouds
9:50 AM 69.8 °F 66.2 °F 88% 30.19 in 7.0 mi ENE 5.8 mph - N/A   Scattered Clouds
10:50 AM 73.4 °F 68.0 °F 83% 30.19 in 7.0 mi ENE 4.6 mph - N/A   Scattered Clouds
11:50 AM 75.2 °F 66.2 °F 73% 30.19 in 7.0 mi ENE 8.1 mph - N/A   Mostly Cloudy
12:50 PM 75.2 °F 66.2 °F 73% 30.18 in 7.0 mi ENE 8.1 mph - N/A   Mostly Cloudy
1:50 PM 75.2 °F 66.2 °F 73% 30.16 in 10.0 mi ENE 6.9 mph - N/A   Mostly Cloudy
2:50 PM 75.2 °F 66.2 °F 73% 30.15 in 10.0 mi NE 8.1 mph - N/A   Scattered Clouds
3:50 PM 77.0 °F 64.4 °F 65% 30.13 in 10.0 mi East 11.5 mph - N/A   Scattered Clouds
5:50 PM 75.2 °F 64.4 °F 69% 30.12 in 10.0 mi ENE 8.1 mph - N/A   Scattered Clouds
6:50 PM 73.4 °F 64.4 °F 73% 30.12 in 10.0 mi ENE 4.6 mph - N/A   Scattered Clouds
7:50 PM 71.6 °F 64.4 °F 78% 30.12 in 10.0 mi ENE 4.6 mph - N/A   Scattered Clouds
8:15 PM 71.6 °F 64.4 °F 78% 30.13 in 10.0 mi Calm Calm - N/A   Clear
8:35 PM 69.8 °F 64.4 °F 83% 30.13 in 10.0 mi Calm Calm - N/A   Clear
8:55 PM 69.8 °F 64.4 °F 83% 30.13 in 10.0 mi Calm Calm - N/A   Clear
9:15 PM 68.0 °F 64.4 °F 88% 30.14 in 10.0 mi Calm Calm - N/A   Clear
9:35 PM 68.0 °F 66.2 °F 94% 30.14 in 10.0 mi Calm Calm - N/A   Clear
9:55 PM 68.0 °F 66.2 °F 94% 30.14 in 10.0 mi Calm Calm - N/A   Clear
10:15 PM 68.0 °F 66.2 °F 94% 30.14 in 10.0 mi Calm Calm - N/A   Clear
10:35 PM 66.2 °F 66.2 °F 100% 30.14 in 10.0 mi Calm Calm - N/A   Clear
10:55 PM 66.2 °F 64.4 °F 94% 30.13 in 10.0 mi Calm Calm - N/A   Clear
11:15 PM 64.4 °F 64.4 °F 100% 30.13 in 7.0 mi Calm Calm - N/A   Clear
11:35 PM 64.4 °F 64.4 °F 100% 30.13 in 7.0 mi Calm Calm - N/A   Clear